Regional Weather Roundup
Issued by NWS

Home | Current Version | Previous Version | Text Only | Print | Product List | Glossary On
Versions: 1 2 3 4 5 6 7 8 9 10 11 12 13 14 15 16 17 18 19 20 21 22 23 24 25 26 27 28 29 30 31 32 33 34 35 36 37 38 39 40 41 42 43 44 45 46 47 48 49 50
000
ASUS44 KFWD 030815
RWRTX
NORTH TEXAS HOURLY WEATHER ROUNDUP
NATIONAL WEATHER SERVICE FORT WORTH TX
200 AM CST TUE MAR 03 2015

NOTE: "FAIR" INDICATES FEW OR NO CLOUDS BELOW 12,000 FEET WITH NO
SIGNIFICANT WEATHER AND/OR OBSTRUCTIONS TO VISIBILITY.

TXZ118-119-030900-
DALLAS/FORT WORTH METROPLEX

CITY           SKY/WX    TMP DP  RH WIND       PRES   REMARKS
DFW AIRPORT    DRZL/FOG  40  40 100 W7        30.11R VSB<1/4 WCI  35
DALLAS LOVE    FOG       41  41 100 W3        30.11F VSB 1/4
FTW MEACHAM    FOG       40  39  97 CALM      30.09F VSB 1/4
DAL-EXECUTIVE  FOG       41  41 100 CALM      30.09F VSB 1/4
FTW-ALLIANCE   DRZL/FOG  38  38 100 SW3       30.09F VSB 1/8
FTW-SPINKS     DRZL/FOG  40  39  97 CALM      30.11F VSB 1
ARLINGTON      CLOUDY    41  38  89 CALM      30.10F FOG
GRAND PRAIRIE  CLOUDY    40  40 100 SW3       30.12F VSB 1
ADDISON        DRIZZLE   43  43 100 CALM      30.12R
MESQUITE       CLOUDY    41  41  98 CALM      30.11F VSB 1/2
LANCASTER      FOG       41  39  95 CALM      30.11F VSB 1/2
$$

TXZ091>094-102>105-117-120-121-131>134-030900-
NORTH CENTRAL TEXAS

CITY           SKY/WX    TMP DP  RH WIND       PRES   REMARKS
SHRMAN/DENISON FOG       41  41 100 S7        30.09F VSB 1   WCI  37
GAINESVILLE    DRZL/FOG  38  38  99 S9        30.09F VSB 1/2 WCI  32
BOWIE          FOG       37  37 100 S8        30.07S VSB 1/2 WCI  30
BRIDGEPORT     CLOUDY    38  38 100 S5        30.11S FOG     WCI  35
DECATUR        FOG       37  37 100 S6        30.07F VSB 3/4 WCI  32
DENTON         FOG       39  39 100 S6        30.10F VSB 1/4 WCI  35
MCKINNEY       FOG       41  41 100 S3        30.10F VSB 3/4
GREENVILLE     FOG       41  41 100 SE3       30.10F VSB 3/4
TERRELL        FOG       43  42  97 CALM      30.11S VSB 1/4
WAXAHACHIE     FOG       40  40 100 CALM      30.10F VSB 1/2
CLEBURNE       FOG       39  39 100 CALM      30.11S VSB 1/4
GRANBURY       CLOUDY    39  38  95 CALM      30.11F FOG
$$

TXZ083>090-098>101-113>116-127>130-139>142-154-155-030900-
WESTERN NORTH TEXAS

CITY           SKY/WX    TMP DP  RH WIND       PRES   REMARKS
WICHITA FALLS  DRIZZLE   37  34  89 S15       30.04F FOG     WCI  28
WF-KICKAPOO    CLOUDY    39  37  91 S13       30.05F WCI  31
VERNON         CLOUDY    39  32  77 S8        30.03S WCI  33
ABILENE        CLOUDY    38  37  97 S7        30.05F FOG     WCI  33
ABILENE-DYESS  CLOUDY    37  36  93 S8        30.03F WCI  31
BRECKENRIDGE   CLOUDY    38  38  99 CALM      30.08S FOG
GRAHAM         CLOUDY    36  36 100 CALM      30.06F FOG
MINERAL WELLS  CLOUDY    37  36  96 S9        30.07F FOG     WCI  30
STEPHENVILLE     N/A     37  36  95 CALM      30.10F VSB 1/4
COMANCHE       FOG       38  38 100 S7        30.08F VSB 3/4 WCI  32
BROWNWOOD      FOG       37  37 100 S6        30.09S VSB 1/2 WCI  33
COLEMAN        FOG       38  38 100 SW3       30.08S VSB 1
BRADY          FOG       37  37 100 SE3       30.06S VSB 1/4
$$

TXZ143>147-156>162-174-175-030900-
CENTRAL TEXAS

CITY           SKY/WX    TMP DP  RH WIND       PRES   REMARKS
WACO           FOG       40  40 100 CALM      30.09F VSB 1/2
WACO-MCGREGOR    N/A     39  36  87 CALM      30.10F VSB 1/2
HILLSBORO      FOG       40  39  96 CALM      30.10F VSB 1/2
CORSICANA      FOG       44  43  96 S3        30.10F VSB 1/2
MEXIA          CLOUDY    42  42  99 CALM      30.09F FOG
HEARNE         CLOUDY    43  43 100 CALM      30.13F FOG
CAMERON        CLOUDY    42  42  99 CALM      30.11F FOG
TEMPLE         CLOUDY    39  36  87 CALM      30.08F VSB 1/2
KILLEEN        FOG       39  39 100 CALM      30.07F VSB 1/2
KILLEEN-SKYLRK CLOUDY    41  36  81 CALM      30.06F VSB 3/4
FORT HOOD      CLOUDY    39  39 100 SW1       30.07  FOG
GATESVILLE     FOG       39  39 100 CALM      30.10F VSB 3/4
HAMILTON       FOG       39  39 100 SW3       30.09S VSB 1/2
LAMPASAS       FOG       40  40  98 CALM      30.07F VSB 1
$$

TXZ095>097-106>112-122>126-135>138-148>153-164>167-030900-
EAST TEXAS

CITY           SKY/WX    TMP DP  RH WIND       PRES   REMARKS
PARIS          CLOUDY    37  36  93 SE10      30.12F VSB 1   WCI  30
SULPHUR SPRNGS FOG       41  41 100 SE3       30.13F VSB 3/4
MOUNT PLEASANT CLOUDY    40  40 100 SE3       30.14F
GILMER         FOG       40  40 100 SE3       30.12F VSB 3/4
MINEOLA        FOG       43  43 100 CALM      30.12F VSB 3/4
TYLER          FOG       44  42  93 SE7       30.10F VSB 1
LONGVIEW       CLOUDY    43  41  93 SE6       30.11F FOG     WCI  39
MARSHALL       CLOUDY    42  40  93 CALM      30.15F VSB 3/4
ATHENS         FOG       43  43 100 CALM      30.11F VSB 3/4
PALESTINE      CLOUDY    46  46 100 S3        30.13F FOG
JACKSONVILLE   FOG       45  44  99 SE3       30.13F VSB 1/4
HENDERSON      CLOUDY    43  43 100 SE3       30.13F
NACOGDOCHES    CLOUDY    45  43  93 SE3       30.14F
LUFKIN         CLOUDY    49  46  90 E3        30.13F FOG
$$

SUPPLEMENTAL OBSERVATIONS (CENTRAL)

CITY           SKY/WX    TMP DP  RH WIND       PRES   REMARKS
$$

SUPPLEMENTAL OBSERVATIONS (WEST)

CITY           SKY/WX    TMP DP  RH WIND       PRES   REMARKS
$$

SUPPLEMENTAL OBSERVATIONS (EAST)

CITY           SKY/WX    TMP DP  RH WIND       PRES   REMARKS
$$

SUPPLEMENTAL OBSERVATIONS ARE A COLLECTION OF AUTOMATED INSTRUMENTS
THAT ARE MAINTAINED BY A VARIETY OF FEDERAL AND STATE AGENCIES.
CERTAIN ELEMENTS...SUCH AS HUMIDITY VALUES AND SUSTAINED WIND
SPEEDS...MAY BE APPROXIMATED.



USA.gov is the U.S. government's official web portal to all federal, state and local government web resources and services.